[[{"header":{"parameterUnit":"m.s-1","parameterCategory":1,"la1":30.2991,"la2":30.254,"lo1":-89.0895,"lo2":-89.0444,"dy":0.0017,"dx":0.0017,"nx":28,"ny":28,"refTime":"2026-02-06T09:00:00:Z","depth":0,"parameterNumber":2,"parameterNumberName":"U-component_of_WINDS"},"data":[0,0,0,0,0,0,0,0,0,0,0,0,0,0,0,0,0,0,0,0,0,0,0,0,0,0,0,0,0,0,0,0,0,0,0,0,0,0,0,0,0,0,0,0,0,0,0,0,0,0,0,0,0,0,0,0,0,0,-2.5134,-2.5135,0,-2.5156,-2.5157,-2.5157,-2.5051,-2.5048,-2.5045,-2.5042,-2.5068,-2.5072,-2.5075,0,0,0,0,0,0,0,0,0,0,0,0,0,-2.5003,-2.5006,-2.5134,-2.5135,-2.5135,-2.5156,-2.5157,-2.5157,-2.5052,-2.5048,-2.5044,-2.5041,-2.5067,-2.5071,-2.5076,0,0,0,0,0,0,0,0,0,0,0,0,0,-2.5046,-2.5007,-2.5134,-2.5085,-2.5081,-2.5156,-2.5157,-2.5157,-2.5052,-2.5048,-2.5043,-2.5039,-2.5066,-2.5071,-2.5076,-2.5202,0,0,-2.5093,-2.5095,0,0,0,0,0,0,0,0,-2.5044,-2.5051,-2.5092,-2.5088,-2.5084,-2.5096,-2.512,-2.5172,-2.5054,-2.5063,-2.5042,-2.5037,-2.5082,-2.5085,-2.51,-2.5203,-2.5204,-2.5093,-2.5096,-2.5099,-2.51,0,0,0,0,0,0,0,-2.5041,-2.505,-2.5143,-2.5093,-2.5088,-2.5062,-2.5063,-2.5129,-2.5098,-2.5062,-2.5054,-2.5058,-2.5079,-2.5095,-2.51,-2.5205,-2.5093,-2.5098,-2.5101,-2.5103,-2.5411,-2.5416,0,0,0,0,0,0,-2.5044,-2.5048,-2.5142,-2.5144,-2.5052,-2.5068,-2.5069,-2.5097,-2.5097,-2.5093,-2.5062,-2.5053,-2.5088,-2.5094,-2.51,-2.5247,-2.5099,-2.5104,-2.5107,-2.5406,-2.5412,-2.5418,0,0,0,0,0,0,-2.5042,-2.5054,-2.5142,-2.5094,-2.5103,-2.5075,-2.5107,-2.51,-2.5116,-2.5097,-2.5091,-2.5085,-2.5085,-2.5093,-2.5177,-2.5247,-2.5106,-2.5111,-2.54,-2.5408,-2.5415,-2.5543,0,0,0,0,0,0,-2.5038,-2.5053,-2.5101,-2.5095,-2.5106,-2.5218,-2.5111,-2.5104,-2.5125,-2.5114,-2.5117,-2.5113,-2.5082,-2.517,-2.5182,-2.5252,-2.5115,-2.5394,-2.5404,-2.5413,-2.5533,-2.5554,-2.5572,0,0,0,0,0,-2.5034,-2.5137,-2.5104,-2.5116,-2.5164,-2.5222,-2.5228,-2.5189,-2.5131,-2.5179,-2.5166,-2.5113,-2.5237,-2.5179,-2.5193,-2.5265,-2.539,-2.5401,-2.5412,-2.5524,-2.555,-2.5572,0,0,0,0,0,0,-2.5152,-2.5135,-2.5098,-2.5202,-2.5214,-2.5204,-2.5263,-2.5218,-2.5248,-2.5236,-2.5187,-2.5189,-2.5282,-2.5281,-2.5218,-2.5386,-2.5303,-2.5318,-2.5383,-2.5408,-2.5428,-2.5427,-2.512,0,0,0,0,0,-2.519,-2.5238,-2.522,-2.5314,-2.5321,-2.5291,-2.5315,-2.5284,-2.5295,-2.53,-2.5294,-2.5308,-2.5349,-2.5378,-2.5416,-2.5531,-2.553,-2.5587,-2.5607,-2.5623,-2.5637,-2.5698,-2.5723,-2.5454,-2.5454,-2.5454,0,0,-2.527,-2.5266,-2.53,-2.5337,-2.5343,-2.5394,-2.5297,-2.5355,-2.5393,-2.5309,-2.5389,-2.5384,-2.5396,-2.5497,-2.5541,-2.5499,-2.5711,-2.5637,-2.5651,-2.5656,-2.5712,-2.5738,-2.5761,-2.5462,-2.5461,-2.5459,0,0,-2.5441,-2.5443,-2.552,-2.5528,-2.5537,-2.5516,-2.5534,-2.5531,-2.5524,-2.5602,-2.5541,-2.5585,-2.5658,-2.5669,-2.5684,-2.5857,-2.5809,-2.5871,-2.5976,-2.6036,-2.6057,-2.6076,-2.6139,-2.6162,-2.5884,-2.5884,-2.5884,0,-2.5539,-2.5613,-2.5567,-2.5629,-2.5648,-2.5572,-2.5651,-2.566,-2.5682,-2.5697,-2.5649,-2.5738,-2.5741,-2.5843,-2.5885,-2.59,-2.592,-2.5871,-2.6057,-2.6076,-2.6092,-2.6152,-2.6176,-2.5892,-2.5891,-2.589,-2.5889,0,-2.5734,-2.5786,-2.5848,-2.5869,-2.5894,-2.5965,-2.593,-2.5961,-2.5926,-2.5911,-2.5991,-2.5991,-2.6027,-2.6048,-2.6016,-2.6146,-2.612,-2.6066,-2.5982,-2.6126,-2.6182,-2.6204,-2.5902,-2.59,-2.5898,-2.5896,0,0,-2.5984,-2.5976,-2.6,-2.6008,-2.6012,-2.6052,-2.6118,-2.6152,-2.618,-2.6197,-2.6253,-2.6315,-2.6264,-2.6281,-2.6249,-2.6302,-2.644,-2.6241,-2.624,-2.6279,-2.6584,-2.6626,-2.6654,-2.6407,-2.6411,-2.6414,-2.6583,0,-2.6152,-2.6266,-2.6224,-2.6341,-2.6389,-2.6316,-2.6374,-2.6383,-2.6369,-2.6408,-2.6393,-2.6438,-2.6367,-2.6377,-2.6426,-2.6413,-2.6501,-2.64,-2.646,-2.6462,-2.6461,-2.6682,-2.6727,-2.6887,-2.6605,-2.6608,-2.6611,0,-2.6365,-2.6389,-2.651,-2.6504,-2.6523,-2.6576,-2.6603,-2.6641,-2.6649,-2.6635,-2.6654,-2.661,-2.6675,-2.6589,-2.6679,-2.6612,-2.6633,-2.663,-2.6635,-2.6642,-2.6547,-2.6696,-2.6937,-2.6962,-2.6644,-2.6641,-2.6639,0,-2.6537,-2.6599,-2.668,-2.6689,-2.6684,-2.6723,-2.6723,-2.6726,-2.6749,-2.6772,-2.6786,-2.6818,-2.6836,-2.6861,-2.6827,-2.6768,-2.6923,-2.6834,-2.6914,-2.6916,-2.6953,-2.6952,-2.7203,-2.6963,-2.6963,-2.6962,-2.6962,0,-2.6732,-2.6809,-2.6757,-2.6807,-2.6891,-2.6842,-2.6927,-2.6919,-2.6922,-2.6969,-2.6908,-2.6953,-2.6904,-2.6946,-2.6919,-2.6998,-2.7006,-2.6998,-2.699,-2.7005,-2.7006,-2.702,-2.7009,-2.6969,-2.6967,-2.6966,-2.6965,0,-2.6939,-2.6907,-2.699,-2.6977,-2.6976,-2.7039,-2.7028,-2.7074,-2.7054,-2.7115,-2.7127,-2.7097,-2.7142,-2.7109,-2.7155,-2.7137,-2.7242,-2.7217,-2.7239,-2.7233,-2.7316,-2.731,-2.7587,-2.7622,-2.7358,-2.7361,-2.7363,0,-2.7067,-2.7124,-2.7117,-2.7144,-2.7147,-2.7191,-2.7213,-2.7167,-2.7192,-2.7205,-2.725,-2.7289,-2.7318,-2.7394,-2.7377,-2.7412,-2.7389,-2.7484,-2.7394,-2.7407,-2.7393,-2.739,-2.7396,-2.7503,-2.7506,-2.7509,-2.7511,0,-2.7297,-2.7277,-2.7311,-2.734,-2.7367,-2.7388,-2.7403,-2.7429,-2.7381,-2.7414,-2.7458,-2.7481,-2.7526,-2.7567,-2.7594,-2.7594,-2.7546,-2.7538,-2.7559,-2.7576,-2.7587,-2.7584,-2.7291,-2.7533,-2.7531,-2.7529,-2.7528,-2.7527,-2.7469,-2.7517,-2.7519,-2.7559,-2.7565,-2.758,-2.7622,-2.7607,-2.7643,-2.7676,-2.7646,-2.77,-2.7706,-2.7737,-2.7744,-2.7786,-2.7747,-2.7777,-2.7784,-2.7793,-2.7806,-2.7578,-2.779,-2.7789,-2.7789,-2.7788,-2.7788,0,-2.7697,-2.7694,-2.7731,-2.7754,-2.7785,-2.7733,-2.7747,-2.7777,-2.7825,-2.7834,-2.7863,-2.7915,-2.7953,-2.7938,-2.7972,-2.8009,-2.7987,-2.802,-2.8018,-2.8019,-2.7838,-2.7817,-2.8036,-2.8036,-2.8036,-2.8036,-2.8036,-2.8036,-2.782,-2.7898,-2.7879,-2.7959,-2.7955,-2.8007,-2.8019,-2.8033,-2.804,-2.81,-2.8131,-2.812,-2.8119,-2.8152,-2.8185,-2.818,-2.8196,-2.8237,-2.8224,-2.8056,-2.8031,-2.8008,-2.7989,-2.824,-2.8241,-2.8401,-2.8403,-2.8404]},{"header":{"parameterUnit":"m.s-1","parameterCategory":1,"la1":30.2991,"la2":30.254,"lo1":-89.0895,"lo2":-89.0444,"dy":0.0017,"dx":0.0017,"nx":28,"ny":28,"refTime":"2026-02-06T09:00:00:Z","depth":0,"parameterNumber":3,"parameterNumberName":"V-component_of_WINDS"},"data":[0,0,0,0,0,0,0,0,0,0,0,0,0,0,0,0,0,0,0,0,0,0,0,0,0,0,0,0,0,0,0,0,0,0,0,0,0,0,0,0,0,0,0,0,0,0,0,0,0,0,0,0,0,0,0,0,0,0,-3.8308,-3.8309,0,-3.8376,-3.8377,-3.8378,-3.8315,-3.8312,-3.831,-3.8307,-3.8374,-3.8378,-3.8382,0,0,0,0,0,0,0,0,0,0,0,0,0,-3.8119,-3.8123,-3.8308,-3.8309,-3.831,-3.8376,-3.8377,-3.8378,-3.8315,-3.8312,-3.8309,-3.8306,-3.8373,-3.8378,-3.8383,0,0,0,0,0,0,0,0,0,0,0,0,0,-3.8196,-3.8125,-3.8308,-3.8287,-3.8285,-3.8376,-3.8377,-3.8378,-3.8316,-3.8312,-3.8308,-3.8304,-3.8371,-3.8377,-3.8383,-3.8498,0,0,-3.8402,-3.8405,0,0,0,0,0,0,0,0,-3.8192,-3.8203,-3.8289,-3.8288,-3.8287,-3.8333,-3.8335,-3.8418,-3.8317,-3.8304,-3.8307,-3.8303,-3.8363,-3.837,-3.8391,-3.8501,-3.8504,-3.8403,-3.8407,-3.8409,-3.8411,0,0,0,0,0,0,0,-3.8186,-3.82,-3.8335,-3.829,-3.8289,-3.8272,-3.8279,-3.8351,-3.8354,-3.8305,-3.83,-3.831,-3.8362,-3.8385,-3.8392,-3.8505,-3.8403,-3.8408,-3.8412,-3.8414,-3.8711,-3.8715,0,0,0,0,0,0,-3.8184,-3.8196,-3.8333,-3.8337,-3.8229,-3.8279,-3.8286,-3.8322,-3.8353,-3.8354,-3.8313,-3.8306,-3.8376,-3.8385,-3.8394,-3.853,-3.8409,-3.8415,-3.8419,-3.8706,-3.8711,-3.8716,0,0,0,0,0,0,-3.818,-3.8197,-3.833,-3.8265,-3.8281,-3.8286,-3.8327,-3.8325,-3.8349,-3.8359,-3.8359,-3.8336,-3.8374,-3.8385,-3.8472,-3.8531,-3.8418,-3.8423,-3.8702,-3.8708,-3.8714,-3.8803,0,0,0,0,0,0,-3.8175,-3.8196,-3.8241,-3.8267,-3.8285,-3.8409,-3.8331,-3.833,-3.836,-3.8352,-3.8381,-3.8382,-3.8372,-3.8463,-3.8479,-3.8538,-3.8428,-3.8696,-3.8704,-3.8712,-3.8795,-3.8811,-3.8826,0,0,0,0,0,-3.8168,-3.8263,-3.8243,-3.826,-3.8341,-3.8412,-3.8422,-3.8409,-3.8365,-3.8409,-3.8416,-3.8381,-3.8522,-3.8473,-3.8489,-3.8551,-3.8693,-3.8702,-3.8711,-3.8788,-3.8808,-3.8825,0,0,0,0,0,0,-3.8243,-3.8266,-3.8244,-3.835,-3.838,-3.8402,-3.8457,-3.8431,-3.8474,-3.8465,-3.8446,-3.8453,-3.8545,-3.8556,-3.8501,-3.8663,-3.86,-3.8613,-3.8652,-3.8672,-3.8687,-3.8682,-3.8433,0,0,0,0,0,-3.8271,-3.8329,-3.8345,-3.8437,-3.8453,-3.8453,-3.8483,-3.847,-3.85,-3.8512,-3.8525,-3.8554,-3.8605,-3.8639,-3.8686,-3.8795,-3.88,-3.8846,-3.8861,-3.8874,-3.8886,-3.8943,-3.8964,-3.8747,-3.8746,-3.8746,0,0,-3.8331,-3.8351,-3.8388,-3.8452,-3.8474,-3.8532,-3.8464,-3.8529,-3.8572,-3.8522,-3.8605,-3.8615,-3.8646,-3.8745,-3.8789,-3.8758,-3.8947,-3.8886,-3.8896,-3.8901,-3.8955,-3.8976,-3.8994,-3.8753,-3.8752,-3.8751,0,0,-3.847,-3.8491,-3.8569,-3.8592,-3.8626,-3.8625,-3.8644,-3.8669,-3.8675,-3.8758,-3.8721,-3.8771,-3.8859,-3.8883,-3.8906,-3.9052,-3.9022,-3.9068,-3.9149,-3.9206,-3.9223,-3.9238,-3.929,-3.9308,-3.9079,-3.908,-3.908,0,-3.854,-3.8628,-3.8613,-3.8681,-3.8709,-3.8667,-3.8745,-3.8768,-3.8815,-3.8835,-3.8799,-3.8908,-3.8926,-3.9029,-3.9065,-3.9085,-3.9105,-3.9065,-3.9222,-3.9237,-3.925,-3.93,-3.9319,-3.9085,-3.9084,-3.9084,-3.9083,0,-3.8712,-3.8774,-3.8832,-3.888,-3.8915,-3.8988,-3.8982,-3.9019,-3.9002,-3.9005,-3.9089,-3.9109,-3.9159,-3.9182,-3.9167,-3.9283,-3.9262,-3.9225,-3.9161,-3.9277,-3.9323,-3.9341,-3.9093,-3.9091,-3.9089,-3.9088,0,0,-3.8902,-3.8938,-3.896,-3.8981,-3.9014,-3.9061,-3.913,-3.918,-3.9212,-3.9245,-3.9303,-3.9378,-3.9342,-3.9369,-3.9355,-3.9405,-3.9519,-3.9361,-3.9361,-3.9389,-3.9647,-3.9676,-3.9698,-3.9498,-3.9502,-3.9505,-3.9645,0,-3.9042,-3.9165,-3.9152,-3.9268,-3.9324,-3.9284,-3.9344,-3.9371,-3.9374,-3.9421,-3.9424,-3.9477,-3.9427,-3.9443,-3.949,-3.9495,-3.957,-3.9485,-3.9551,-3.9554,-3.9545,-3.9722,-3.9753,-3.9884,-3.9662,-3.9665,-3.9668,0,-3.9222,-3.9263,-3.9385,-3.9409,-3.9432,-3.9487,-3.9531,-3.9576,-3.9604,-3.9603,-3.9632,-3.961,-3.9678,-3.9612,-3.9706,-3.9648,-3.9674,-3.968,-3.9685,-3.9691,-3.9618,-3.9733,-3.9926,-3.9946,-3.9696,-3.9693,-3.9691,0,-3.9348,-3.9433,-3.9517,-3.9535,-3.9565,-3.9605,-3.9619,-3.9643,-3.9673,-3.9711,-3.973,-3.9775,-3.98,-3.9835,-3.9824,-3.9777,-3.992,-3.9853,-3.992,-3.9921,-3.9953,-3.9951,-4.0153,-3.9969,-3.9969,-3.9968,-3.9968,0,-3.9506,-3.9583,-3.9573,-3.9625,-3.9709,-3.9692,-3.9775,-3.9784,-3.9806,-3.9857,-3.9824,-3.9873,-3.9856,-3.9904,-3.9895,-3.9974,-3.9985,-3.9985,-3.9983,-3.9989,-3.9989,-4.0006,-3.9997,-3.9973,-3.9972,-3.9971,-3.997,0,-3.9661,-3.9658,-3.9747,-3.9768,-3.9775,-3.9836,-3.9853,-3.9901,-3.9901,-3.9966,-3.9981,-3.9981,-4.0035,-4.0028,-4.0088,-4.0082,-4.018,-4.0165,-4.0171,-4.0168,-4.0235,-4.0229,-4.0455,-4.0484,-4.0281,-4.0283,-4.0285,0,-3.9763,-3.9821,-3.9848,-3.9881,-3.9898,-3.9951,-3.9981,-3.9966,-4.0,-4.0035,-4.0079,-4.013,-4.017,-4.0258,-4.0263,-4.0308,-4.0295,-4.0371,-4.0301,-4.0306,-4.0296,-4.0293,-4.0298,-4.0385,-4.0387,-4.0389,-4.039,0,-3.9944,-3.9939,-3.9985,-4.0031,-4.0069,-4.0104,-4.0136,-4.0164,-4.0151,-4.019,-4.0246,-4.0277,-4.0338,-4.0389,-4.0431,-4.0444,-4.0415,-4.0412,-4.043,-4.0437,-4.0438,-4.0439,-4.0209,-4.0407,-4.0405,-4.0404,-4.0403,-4.0403,-4.0075,-4.0125,-4.0151,-4.0203,-4.0226,-4.0256,-4.0302,-4.0307,-4.0354,-4.0403,-4.0391,-4.0453,-4.0478,-4.0532,-4.0549,-4.0596,-4.0568,-4.0594,-4.0601,-4.0608,-4.0616,-4.043,-4.0604,-4.0603,-4.0603,-4.0603,-4.0602,0,-4.0254,-4.0269,-4.0317,-4.0363,-4.0404,-4.0373,-4.0406,-4.0442,-4.0498,-4.0524,-4.0564,-4.0627,-4.0675,-4.0684,-4.073,-4.0766,-4.0754,-4.0779,-4.0776,-4.0779,-4.0638,-4.0618,-4.0788,-4.0788,-4.0788,-4.0788,-4.0788,-4.0788,-4.0352,-4.0434,-4.0432,-4.0524,-4.0537,-4.0599,-4.0621,-4.0647,-4.0668,-4.074,-4.0781,-4.0786,-4.0804,-4.0851,-4.0894,-4.0895,-4.0914,-4.0944,-4.094,-4.0808,-4.0789,-4.0772,-4.0753,-4.0948,-4.0948,-4.1077,-4.1078,-4.1079]}]]